This is the latest recevied weather packets stored in our database for station/object EA3AGY-13. If no packets are shown the sender has not sent any weather packets the latest 10 day(s).
| Time | Temp. | Humidity | Pressure | Rain* | Wind** | Luminosity | Snow |
|---|---|---|---|---|---|---|---|
| 1778049437 | 6.67° C | 37% | 1009.1 hPa | 1.78 mm | - | - | - |
| 1778048832 | 6.11° C | 34% | 1009 hPa | 1.78 mm | - | - | - |
| 1778048230 | 6.11° C | 37% | 1009 hPa | 1.78 mm | - | - | - |
| 1778047627 | 5.56° C | 40% | 1009 hPa | 1.78 mm | - | - | - |
| 1778046422 | 5° C | 42% | 1008.9 hPa | 1.78 mm | - | - | - |
| 1778045217 | 3.89° C | 48% | 1008.8 hPa | 1.78 mm | - | - | - |
| 1778044615 | 3.33° C | 47% | 1008.8 hPa | 1.78 mm | - | - | - |
| 1778044013 | 2.22° C | 45% | 1008.6 hPa | 1.78 mm | - | - | - |
| 1778041606 | 2.22° C | 47% | 1008.5 hPa | 1.78 mm | - | - | - |
| 1778039796 | 2.22° C | 44% | 1008.6 hPa | 1.78 mm | - | - | - |
| 1778037989 | 2.22° C | 50% | 1008.6 hPa | 1.78 mm | - | - | - |
| 1778037387 | 2.22° C | 52% | 1008.6 hPa | 1.78 mm | - | - | - |
| 1778034977 | 2.22° C | 49% | 1008.7 hPa | 1.78 mm | - | - | - |
| 1778034375 | 2.22° C | 47% | 1008.6 hPa | 1.78 mm | - | - | - |
| 1778032568 | 2.78° C | 44% | 1008.7 hPa | 1.78 mm | - | - | - |
| 1778031966 | 2.78° C | 44% | 1008.7 hPa | 1.78 mm | - | - | - |
| 1778030158 | 2.22° C | 48% | 1008.9 hPa | 1.78 mm | - | - | - |
| 1778027750 | 3.89° C | 45% | 1009.1 hPa | 1.78 mm | - | - | - |
| 1778026544 | 3.33° C | 45% | 1009.2 hPa | 1.78 mm | - | - | - |
| 1778024737 | 3.33° C | 46% | 1009.4 hPa | 1.78 mm | - | - | - |
| 1778022328 | 3.33° C | 40% | 1009.5 hPa | 1.78 mm | - | - | - |
| 1778021725 | 3.89° C | 41% | 1009.5 hPa | 1.78 mm | - | - | - |
| 1778019918 | 3.89° C | 41% | 1009.9 hPa | 1.78 mm | - | - | - |
| 1778012689 | 4.44° C | 48% | 1009.7 hPa | 1.78 mm | - | - | - |
| 1778011485 | 4.44° C | 42% | 1009.5 hPa | 1.78 mm | - | - | - |
* Rain since midnight (hover to see other rain measurements)
** Current wind speed in m/s (hover to see current wind gust speed)